Weather Roundup
Issued by NWS Chicago, IL

Home | Current Version | Previous Version | Text Only | Print | Product List | Glossary On
Versions: 1 2 3 4 5 6 7 8 9 10 11 12 13 14 15 16 17 18 19 20 21 22 23 24 25 26 27 28 29 30 31 32 33 34 35 36 37 38 39 40 41 42 43 44 45 46 47 48 49 50
000
NZUS59 KLOT 270610
HRRLOT

CHICAGO AREA WEATHER ROUNDUP
NATIONAL WEATHER SERVICE CHICAGO/ROMEOVILLE IL
1200 AM CST SAT DEC 27 2014

NOTE: "FAIR" INDICATES FEW OR NO CLOUDS BELOW 12,000 FEET WITH NO
SIGNIFICANT WEATHER AND/OR OBSTRUCTIONS TO VISIBILITY.

* THESE STATIONS ARE NOT UNDER NWS QUALITY CONTROL. THEY ALSO MAY NOT
  REPORT WEATHER SUCH AS PRECIPITATION OR FOG.

ILZ005-006-012>014-019>023-270700-
NORTHEAST ILLINOIS

CITY           SKY/WX    TMP DP  RH WIND       PRES   REMARKS
OHARE          CLOUDY    44  41  89 S6        30.01F
6HR MIN TEMP:  43; 6HR MAX TEMP:  48;

MIDWAY         MOCLDY    48  43  82 S10       30.02F
6HR MIN TEMP:  48; 6HR MAX TEMP:  51;

AURORA         PTCLDY    44  40  85 S8        30.01F
6HR MIN TEMP:  38; 6HR MAX TEMP:  47;

LANSING*       CLOUDY    46  42  88 S8        30.04F
JOLIET*        PTCLDY    44  41  88 S8        30.02F
WAUKEGAN       CLOUDY    44  39  82 S3        30.00F
6HR MIN TEMP:  38; 6HR MAX TEMP:  45;

DUPAGE AIRPORT PTCLDY    44  41  89 S8        30.00F
6HR MIN TEMP:  40; 6HR MAX TEMP:  47;

WHEELING       CLOUDY    46  41  82 S7        30.03F
6HR MIN TEMP:  39; 6HR MAX TEMP:  48;

KANKAKEE*      PTCLDY    44  41  92 S12       30.04F
MORRIS*        CLOUDY    44  43  97 S10       30.01F
LEWIS AIRPORT* MOCLDY    43  42  95 S9        30.02F
NORTHERLY IS     N/A     48  42  80 S7          N/A
$$

WIZ051-052-058>065-066-070>072-270700-
SOUTHEAST WISCONSIN

CITY           SKY/WX    TMP DP  RH WIND       PRES   REMARKS
MILWAUKEE      CLOUDY    43  38  82 S6        29.99F
6HR MIN TEMP:  36; 6HR MAX TEMP:  43;

KENOSHA*       CLOUDY    44  40  85 S5        30.00F
RACINE*        CLOUDY    45  39  79 S5        30.01F
BURLINGTON     CLOUDY    36  35  94 CALM      29.99S
WAUKESHA       CLOUDY    37  36  93 S3        29.99S
WEST BEND      PTCLDY    32  32 100 CALM      29.99F
$$

INZ001>003-010>013-019-020-270700-
NORTHWEST INDIANA

CITY           SKY/WX    TMP DP  RH WIND       PRES   REMARKS
GARY*          CLOUDY    49  40  70 S7        30.05F
6HR MIN TEMP:  49; 6HR MAX TEMP:  51;

MICHIGAN CITY* NOT AVBL
RENSSELAER*    NOT AVBL
VALPARAISO     CLOUDY    45  41  86 S7        30.06F
$$

LMZ740>746-270700-
SOUTHERN LAKE MICHIGAN

STATION/POSITION TIME  SKY/WX   TEMP WIND        PRES    VSBY
                                AIR  DIR/SP/G
                 (UTC)          (F)  (DEG/KT/KT) (MB)    (MI)
HARRISON CRIB    0600            46  170/ 13/ 15   N/A
BURNHAM HARBOR   0600            47  200/  5/ 11   N/A
CALUMET HARBOR   0600            47  180/ 10/ 16 1015.6F
BURNS HARBOR     NOT AVBL
MICHIGAN CITY    0600            47  160/ 13/ 17   N/A
$$

ABBREVIATIONS USED IN REMARKS
   TC - TEMPERATURE IN CELSIUS
  WCI - WIND CHILL INDEX
   HX - HEAT INDEX
  VSB - VISIBILITY
$$



USA.gov is the U.S. government's official web portal to all federal, state and local government web resources and services.